Location: Altleiningen
(49.5078°N, 8.0741°E)
Time: 21:40:37
(UTC+00:00)

Meteor 2-20 Rocket - Pass Details

Date: 03 March 2021
Orbit: 941 x 958 km, 82.5° (Epoch: 13 April)

Event Time Altitude Azimuth Distance (km) Brightness Sun altitude
Rises 19:40:01 0° 351° (N) 3,623 7.9 -24.2°
Reaches altitude 10° 19:42:33 10° 354° (N) 2,675 7.1 -24.6°
Maximum altitude 19:48:38 66° 77° (ENE) 1,031 4.3 -25.5°
Enters shadow 19:49:11 63° 107° (ESE) 1,054 4.3 -25.6°
